Regional Weather Roundup
Issued by NWS

Home | Current Version | Previous Version | Text Only | Print | Product List | Glossary Off
Versions: 1 2 3 4 5 6 7 8 9 10 11 12 13 14 15 16 17 18 19 20 21 22 23 24 25 26 27 28 29 30 31 32 33 34 35 36 37 38 39 40 41 42 43 44 45 46 47 48 49 50

000
ASUS43 KLOT 191810
RWRIL

ILLINOIS REGIONAL WEATHER ROUNDUP
NATIONAL WEATHER SERVICE CHICAGO/ROMEOVILLE IL
100 PM CDT FRI SEP 19 2014

NOTE: "FAIR" INDICATES FEW OR NO CLOUDS BELOW 12,000 FEET WITH NO
SIGNIFICANT WEATHER AND/OR OBSTRUCTIONS TO VISIBILITY.

* THESE STATIONS ARE NOT UNDER NWS QUALITY CONTROL. THEY ALSO MAY NOT
  REPORT WEATHER SUCH AS PRECIPITATION OR FOG.

ILZ001-002-007-009-015-016-024-191900-
NORTHWEST ILLINOIS

CITY           SKY/WX    TMP DP  RH WIND       PRES   REMARKS
MOLINE         SUNNY     73  52  47 S14       30.05F
6HR MIN TEMP:  47; 6HR MAX TEMP:  73;

STERLING*      SUNNY     73  52  46 S8G18     30.07F
SAVANNA*       SUNNY     74  51  44 S10G20    30.05F
$$

ILZ003-004-008-010-011-017-018-191900-
NORTH CENTRAL ILLINOIS

CITY           SKY/WX    TMP DP  RH WIND       PRES   REMARKS
ROCKFORD       MOSUNNY   73  48  41 S20G26    30.09F
6HR MIN TEMP:  54; 6HR MAX TEMP:  73;

FREEPORT*      SUNNY     73  54  51 S17       30.09F
ROCHELLE*      SUNNY     73  48  41 S16G22    30.09F
DE KALB*       SUNNY     69  50  50 S18       30.11F
PERU*          SUNNY     73  49  42 S17       30.10F
$$

ILZ005-006-012>014-019>023-191900-
NORTHEAST ILLINOIS

CITY           SKY/WX    TMP DP  RH WIND       PRES   REMARKS
CHICAGO-OHARE  MOSUNNY   72  46  39 S20G26    30.11F
6HR MIN TEMP:  54; 6HR MAX TEMP:  72;

CHICAGO-MIDWAY MOSUNNY   73  47  39 S13G25    30.12F
6HR MIN TEMP:  57; 6HR MAX TEMP:  74;

AURORA         SUNNY     73  49  42 SE16G23   30.11F
6HR MIN TEMP:  49; 6HR MAX TEMP:  73;

LANSING*       SUNNY     71  48  42 S14G21    30.14F
JOLIET*        SUNNY     72  45  37 S14G21    30.12F
WAUKEGAN       SUNNY     71  49  45 S14G23    30.09F
6HR MIN TEMP:  53; 6HR MAX TEMP:  71;

DUPAGE AIRPORT SUNNY     73  48  41 S20G25    30.10F
6HR MIN TEMP:  52; 6HR MAX TEMP:  73;

KANKAKEE*      SUNNY     73  48  41 SE10G18   30.14S
WHEELING       SUNNY     73  46  38 S18G28    30.11F
6HR MIN TEMP:  52; 6HR MAX TEMP:  73;

MORRIS*        SUNNY     74  50  42 S10G18    30.10F
ROMEOVILLE*    SUNNY     72  48  42 S12G22    30.11F
NORTHERLY ISL    N/A     71  48  43 S12         N/A
$$

LMZ740>746-191900-
SOUTHERN LAKE MICHIGAN

STATION/POSITION SKY/WX   TEMP    WIND        PRES    VSBY  WAVE
                          AIR SEA DIR/SP/G                  HT/PER
                          (F)     (DEG/KT/KT) (MB)    (MI)  (FT/S)
SOUTHERN BUOY              63 65  180/ 17/ 21 1020.1F         4/ 5
WAUKEGAN HARBOR            64     150/ 15/ 17   N/A
HARRISON CRIB              65     150/ 10/ 12   N/A
BURNHAM HARBOR             71     160/ 12/ 16   N/A
CALUMET HARBOR             70     170/ 12/ 19 1019.0F
MICHIGAN CITY              68     150/ 12/ 18   N/A
MICHIGAN CITY 6N           68 65  170/ 14/ 16   N/A           1/ 2
ST. JOSEPH                 67 66  160/ 10/ 14   N/A           1/ 2
$$

ILZ025>027-034>036-040-047-049-050-058-095>099-191900-
WEST-CENTRAL ILLINOIS

CITY           SKY/WX    TMP DP  RH WIND       PRES   REMARKS
QUINCY         SUNNY     74  54  49 S9        30.06F
GALESBURG*     SUNNY     73  55  53 S10G17    30.07F
MACOMB*        SUNNY     74  52  44 S10       30.09F
JACKSONVILLE*  SUNNY     77  55  45 S9        30.09F
PITTSFIELD*    SUNNY     76  54  46 S5        30.08F
$$

ILZ028>032-037-038-041>044-048-051>054-059>061-191900-
CENTRAL ILLINOIS

CITY           SKY/WX    TMP DP  RH WIND       PRES   REMARKS
PONTIAC        SUNNY     75  48  38 S14G20    30.11F
DECATUR        SUNNY     74  50  42 SE12      30.12F
PEORIA         SUNNY     75  53  46 S15       30.09F
6HR MIN TEMP:  52; 6HR MAX TEMP:  75;

LACON*         SUNNY     73  52  48 S14       30.08F
LINCOLN*       SUNNY     76  50  39 SE12      30.07F
SPRINGFIELD    SUNNY     75  55  49 SE13G18   30.09F
6HR MIN TEMP:  50; 6HR MAX TEMP:  76;

TAYLORVILLE    SUNNY     73  54  49 SE7       30.10F
$$

ILZ033-039-045-046-055>057-062-063-191900-
EAST-CENTRAL ILLINOIS

CITY           SKY/WX    TMP DP  RH WIND       PRES   REMARKS
CHAMPAIGN      SUNNY     74  46  36 SE14      30.14F
DANVILLE*      SUNNY     73  48  41 SE7       30.11F
RANTOUL*       SUNNY     75  40  27 S10G20    30.14S
MATTOON        SUNNY     72  51  47 S8        30.12F
PARIS*         SUNNY     73  49  41 E10       30.14F
$$

ILZ079-100>102-191900-
SOUTHWEST ILLINOIS

CITY           SKY/WX    TMP DP  RH WIND       PRES   REMARKS
ALTON          SUNNY     73  54  49 SE12      30.09F
BELLEVILLE     SUNNY     76  59  55 NE9       30.08F
CAHOKIA*       SUNNY     76  58  53 SE9       30.08F
SPARTA*        SUNNY     76  57  52 SE7       30.09F
$$

ILZ064>066-069>071-074>076-080>082-084>086-088>090-092>094-191900-
SOUTH-CENTRAL ILLINOIS

CITY           SKY/WX    TMP DP  RH WIND       PRES   REMARKS
CARBONDALE     SUNNY     76  58  53 SE7       30.08F
6HR MIN TEMP:  50; 6HR MAX TEMP:  76;

CAIRO*         SUNNY     79  61  52 NE6       30.06F HX  80
EFFINGHAM*     SUNNY     75  48  38 SE8       30.11F
MARION         SUNNY     79  57  47 E5        30.09F HX  80
MT. VERNON     SUNNY     75  57  53 E8        30.11S
CENTRALIA*     SUNNY     75  54  47 E8        30.10S
SALEM*         SUNNY     75  58  55 E7        30.10F
METROPOLIS*    SUNNY     79  58  47 SE6       30.06F HX  80
$$

ILZ067-068-072-073-078-083-087-091-191900-
SOUTHEAST ILLINOIS

CITY           SKY/WX    TMP DP  RH WIND       PRES   REMARKS
LAWRENCEVILLE  SUNNY     76  52  43 E9G18     30.11F
FLORA*         SUNNY     76  52  43 SE9       30.11S
FAIRFIELD*     SUNNY    N/A N/A N/A SE5       30.09F
HARRISBURG*    SUNNY     77  53  43 SE7       30.09F
ROBINSON*      SUNNY     75  54  47 SE13      30.13F
CARMI*         SUNNY     80  56  43 E7        30.08F HX  80
$$

ABBREVIATIONS USED IN REMARKS
   TC - TEMPERATURE IN CELSIUS
  WCI - WIND CHILL INDEX
   HX - HEAT INDEX
  VSB - VISIBILITY
$$




USA.gov is the U.S. government's official web portal to all federal, state and local government web resources and services.